Regional Weather Roundup
Issued by NWS Albany, NY

Home | Current Version | Previous Version | Text Only | Print | Product List | Glossary On
Versions: 1 2 3 4 5 6 7 8 9 10 11 12 13 14 15 16 17 18 19 20 21 22 23 24 25 26 27 28
000
ASUS41 KALY 230310
RWRALY

NEW YORK STATE HOURLY WEATHER ROUNDUP
NATIONAL WEATHER SERVICE ALBANY NY
1100 PM EDT WED MAR 22 2017

NOTE: "FAIR" INDICATES FEW OR NO CLOUDS BELOW 12,000 FEET WITH NO
SIGNIFICANT WEATHER AND/OR NO OBSTRUCTIONS TO VISIBILITY.

NYZ032-033-038>043-046>054-057>066-NYZ062>081-082-084-230400-
EAST


CITY           SKY/WX    TMP DP  RH WIND       PRES   REMARKS
ALBANY         CLEAR     19  -4  36 NW8       30.44R WCI   9
GLENS FALLS    CLEAR     18  -5  36 NW9       30.42R WCI   7
POUGHKEEPSIE   PTCLDY    20  -3  36 NW10      30.42R WCI   9
NEWBURGH       CLEAR     19   1  45 NW14      30.42R WCI   6
MONTGOMERY     CLEAR     21  -1  38 NW9G21    30.42R WCI  11
WHITE PLAINS   CLEAR     22  -3  33 NW15      30.38R WCI   9
ISLIP          CLEAR     24  -4  29 NW22G31   30.38R WCI   9
NEW YORK CITY  CLEAR     28   0  29 NW23G30   30.43R WCI  14
CENTRAL PARK   CLEAR     25  -1  32 NW10G20   30.45R WCI  15
$$

NYZ005>009-017-018-044>046-055-056-230400-
CENTRAL


CITY           SKY/WX    TMP DP  RH WIND       PRES   REMARKS
FULTON         CLEAR     21   4  47 NW7       30.47R WCI  12
SYRACUSE       CLEAR     18   8  65 W9        30.47S WCI   7
ROME           PTCLDY    11   1  64 NW6       30.47S WCI   1
ELMIRA         CLEAR     16   4  59 CALM      30.47R
BINGHAMTON     CLEAR     12   2  64 NW8       30.39R WCI   0
MONTICELLO     CLEAR     16   1  53 NW13G20   30.36S WCI   2
$$

NYZ026>034-041>043-087-230400-
NORTH


CITY           SKY/WX    TMP DP  RH WIND       PRES   REMARKS
WATERTOWN      CLEAR      7   5  91 CALM      30.47S
FORT DRUM      NOT AVBL
MASSENA        CLEAR     10  -2  58 W3        30.47R
SARANAC LAKE   CLEAR      1  -8  66 CALM      30.31R
PLATTSBURGH    CLEAR     13  -3  49 SW3       30.42R
$$

NYZ001>004-010>016-019>021-085-230400-
WEST


CITY           SKY/WX    TMP DP  RH WIND       PRES   REMARKS
NIAGARA FALLS  CLEAR     23  10  57 CALM      30.52S
BUFFALO        CLEAR     23   8  52 W5        30.51S WCI  17
DUNKIRK        CLEAR     21  12  68 SW6       30.53S WCI  13
JAMESTOWN      CLEAR     19   7  58 SW8       30.45R WCI   9
WELLSVILLE     CLEAR     16   4  59 NW9       30.42R WCI   4
ROCHESTER      CLEAR     21   8  57 W5        30.51S WCI  15
PENN YAN       CLEAR     21   4  47 VRB6      30.47S WCI  13
$$

             KEY
       WCI = WIND CHILL INDEX
       VSB = VISIBILITY
       HX  = HEAT INDEX
$$




USA.gov is the U.S. government's official web portal to all federal, state and local government web resources and services.